FENGYUN 1C DEB, 35176

Orbit data source: Space-Track

FENGYUN 1C DEB, 35176 is space debris in SSO originally from a launch on Mon, 10 May 1999 UTC launched from the Taiyaun Space Center, China (TSC). Fengyun 1C debris stems from the Chinese weather satellite Fengyun-1C, which was intentionally destroyed by a Chinese anti-satellite missile in 2007. This event dramatically increased the amount of space debris, with thousands of trackable fragments posing hazards to satellites and human spaceflight. The Fengyun 1C debris cloud has become a focal point in discussions about space sustainability and the need for international regulations to prevent the creation of new debris.

Loading next visibility...
Identifier
35176, 1999-025DNG
Orbit
SSO
Country
Flag of CNCN / PRC
Related business
Manufacturer
Unknown
Mission
Spacecraft
Bus & Motor
Unknown
Mass
Unknown
Launch date (UTC)
1999-05-10 (27 years ago)
Launch vehicle
Unknown
Launch site
Taiyaun Space Center, China (TSC)
Object type
Payload
Rocket body
Debris
Shape & HBR
Unknown shape, 0.1 m
Radar Cross Section
Small (<0.1 m²)

Expand to show TLE details & history
Last TLE update: 23 hours ago

TLE from 23 hours ago
0 FENGYUN 1C DEB
1 35176U 99025DNG 26118.92451012  .00000633  00000-0  32965-3 0  9999
2 35176  98.5700 105.6440 0054136  22.3711 337.9808 14.17211651928712
Epoch: 2026-04-28T22:11Z
TLE epoch observation values (Epoch: 2026-04-28T22:11:17.674Z)
Latitude
-0.00005°
Longitude
-84.07248°
Altitude
801.536 km
Speed
7.471 km/s
True Right ascension
07h 02m 34s
True Declination
0° 00' 00"
Sunlit
Object was in daylight at epoch
Visualization orbit readout
Latitude
Unknown
Longitude
Unknown
Altitude
Unknown
Speed
Unknown
Apparent Right ascension
Unknown
Apparent Declination
Unknown
Sunlit
N/A
Visualization observer readout
Local Sidereal Time
04:39:48
Azimuth
Unknown
Elevation
Unknown
Doppler factor
Unknown
Orbital elements
Apogee altitude
870.986 km
Perigee altitude
792.921 km
Semi-major axis
7,210.091 km
Eccentricity
0.00541
Inclination
98.57°
RAAN
105.644°
Arg. of periapsis
22.3711°
True anomaly
337.74675°
Mean anomaly
337.9808°
Eccentric anomaly
337.86392°
Mean motion
3.54513 °/min
Orbital period
101.55 mins
BSTAR
0.00032965
Loading maneuver chart data...
Computing Atmospheric mass density...

Documentation

Showing up to 5 results
|